Regional Weather Roundup
Issued by NWS Huntsville, AL

Home | Current Version | Previous Version | Text Only | Print | Product List | Glossary On
Versions: 1 2 3 4 5 6 7 8 9 10 11 12 13 14 15 16 17 18 19 20 21 22 23 24 25 26 27 28 29 30 31 32 33 34 35 36 37 38 39 40 41 42 43 44 45 46 47 48 49 50
000
ASUS44 KHUN 031210
RWRHUN

WEATHER ROUNDUP FOR THE TENNESSEE VALLEY
NATIONAL WEATHER SERVICE HUNTSVILLE AL
700 AM CDT FRI JUL 03 2015

ALZ001>004-031300-
NORTHWEST ALABAMA

CITY           SKY/WX    TMP DP  RH WIND       PRES   REMARKS
COURTLAND HCN    N/A     70 N/A N/A SW6         N/A
BANKHEAD NF      N/A     68  67  96 W6          N/A
RUSSELLVILLE     N/A     70 N/A N/A MISG        N/A
SHOALS AIRPORT CLOUDY    72  69  90 W7        29.95R
6HR MIN TEMP:  71; 6HR MAX TEMP:  78; 6HR PCP:  0.87;

SHOALS TVA RES   N/A     70 N/A N/A MISG        N/A
$$

ALZ005>007-016-031300-
NORTH CENTRAL ALABAMA

CITY           SKY/WX    TMP DP  RH WIND       PRES   REMARKS
CULLMAN AG STN   N/A     68 N/A N/A W8          N/A
DECATUR AP     TSTM      70  69  97 SW12      29.95R FOG
6HR MIN TEMP:  71; 6HR MAX TEMP:  78; 6HR PCP:  0.44;

HUNTSVILLE AP  TSTM      73  71  93 SW8       29.94R
6HR MIN TEMP:  73; 6HR MAX TEMP:  79; 6HR PCP:  0.49;

HUN NWS/UAH      N/A     71  68  90 S2          N/A
MERIDIANVILLE  LGT RAIN  72  66  83 CALM      29.94S
REDSTONE ARSN  CLOUDY    70  69  96 S3        29.94R
VINEMONT AP    RAIN      68  66  95 SW6       30.00R
$$

ALZ008>010-031300-
NORTHEAST ALABAMA

CITY           SKY/WX    TMP DP  RH WIND       PRES   REMARKS
ALBERTVILLE    LGT RAIN  70  70 100 SW8       29.97R
FORT PAYNE     CLOUDY    70  64  83 CALM      29.96R
SCOTTSBORO AP  LGT RAIN  72  72 100 W7        29.96R
SCOTTSBORO HCN   N/A     72 N/A N/A MISG        N/A
VALLEY HEAD      N/A     68 N/A N/A MISG        N/A
$$

TNZ076-096-097-031300-
SOUTHEASTERN MIDDLE TENNESSEE

CITY           SKY/WX    TMP DP  RH WIND       PRES   REMARKS
TULLAHOMA      PTSUNNY   70  68  94 SW12      29.95S
WINCHESTER     PTSUNNY   72  70  94 W6        29.95S
$$

...SURROUNDING SITES...

CITY           SKY/WX    TMP DP  RH WIND       PRES   REMARKS
ATLANTA        PTSUNNY   77  71  82 SW13      29.98S
ANNISTON       PTSUNNY   78  72  81 SW12      29.98R
BIRMINGHAM     CLOUDY    73  67  81 NW17G25   30.03R
CHATTANOOGA    LGT RAIN  74  71  91 S5        29.93R FOG
CORINTH        CLOUDY    75  72  88 SW10      29.90S
DALTON         TSTM      70  70 100 SW5       29.95R
GADSDEN        CLOUDY    82  68  61 SW6       29.97R
GOLDEN TRNGL   SUNNY     77  70  78 SW12G18   29.98R
HALEYVILLE     TSTM      68  68 100 SW10G16   30.03F FOG
JACKSON TN     MOSUNNY   73  69  87 CALM      29.89S
MEMPHIS        TSTM      72  70  93 W7        29.90S FOG
NASHVILLE      PTSUNNY   72  71  97 SW7       29.88S
ROME           CLOUDY    72  69  90 SW7       29.96R
SAVANNAH       CLOUDY    73  32  21 CALM      29.91S
TUPELO         RAIN      71  69  93 SW9       29.95S FOG
TUSCALOOSA     CLOUDY    76  73  91 S7        30.00R FOG
$$

...GULF COAST WEATHER...

CITY           SKY/WX    TMP DP  RH WIND       PRES   REMARKS
GULFPORT       PTSUNNY   79  77  94 CALM      30.04S
PASCAGOULA     CLOUDY    80  78  94 CALM      30.06R
MOBILE         CLOUDY    78  77  96 SW6       30.07R FOG
GULF SHORES    CLOUDY    80  76  87 W6        30.06R
PENSACOLA      CLOUDY    80  75  84 W5        30.05R
DESTIN         PTSUNNY   83  77  82 W7        30.06R HX  92
PANAMA CITY    CLOUDY    82  76  82 SW8       30.07R
APPALACHICOLA  PTSUNNY   84  77  79 W6        30.07R HX  94
$$



USA.gov is the U.S. government's official web portal to all federal, state and local government web resources and services.